www.pogodaiklimat.ru

Погода и климат >> Архив погоды >> Молдова >> Штефан Водэ


ПОГОДА в Штефан Водэ

  • Прогноз погоды в Штефан Водэ
  • Монитор погоды в Штефан Водэ

АРХИВ ПОГОДЫ в Штефан Водэ

Время (UTC), дата Ветер
(напр.,м/с)
 
Видим.   Явления Облачность Т
(С)
Тd
(С)
f
(%)
Тe
(С)
Тes
(С)
Комфортность P
(гПа)
Po
(гПа)
Тmin
(С)
Tmax
(С)
R
(мм)
R24
(мм)
S
(см)
18 10.09 штиль 0-2
{2}
10 км 3/0
[Ci fib]
+15.7 +5.3 50 +16 +16 1021.4 1000.8 +60.9 +28.0
21 10.09 штиль 0
{1}
10 км 4/0
[Ci fib]
+13.0 +8.5 74 +13 +13 1022.7 1001.9
00 11.09 СВ 2-1
{1}
10 км 3/0
[Ci fib]
+14.3 +7.8 65 +14 +14 1022.7 1001.9
03 11.09 СВ 1-1
{1}
10 км ясно +12.4 +4.6 59 +13 +13 1023.6 1002.6
06 11.09 СВ 1-10
{10}
20 км 5/0
[Ci fib]
+17.9 +3.8 39 +19 +22 1025.1 1004.3 +11.6
09 11.09 В 2-2
{4}
20 км 4/0
[Ci fib]
+26.7 +5.1 25 +26 +36 жарко 1024.1 1003.9
12 11.09 ЮВ 3 20 км 3/0
[Ci fib]
+27.6 +2.6 20 +26 +33 жарко 1023.6 1003.5
15 11.09 ЮВ 1 20 км 9/0
[Ci fib]
+24.8 +2.9 24 +24 +25 комфорт 1024.1 1003.8
18 11.09 штиль 0-1
{2}
10 км 8/0
[Ci fib]
+16.6 +4.0 43 +17 +17 1025.9 1005.0 +8.0 +28.6
21 11.09 штиль 0 10 км ясно +14.6 +8.5 67 +14 +14 1026.6 1005.6
00 12.09 С 2 10 км ясно +16.3 +6.7 53 +16 +16 1026.1 1005.2
03 12.09 С 2-1
{1}
10 км 5/0
[Ci fib]
+15.4 +4.7 49 +15 +15 1026.2 1005.2
06 12.09 СВ 2 20 км 3/0
[Ci fib]
+18.7 +2.5 34 +19 +22 1026.7 1005.9 +12.8
09 12.09 СВ 2-2
{2}
20 км 6/0
[Ci fib]
+27.0 +2.1 20 +25 +35 комфорт 1025.7 1005.5
12 12.09 В 2 20 км 8/0
[Ci fib]
+28.9 -0.3 15 +26 +34 жарко 1024.3 1004.3
15 12.09 ЮВ 1-2
{3}
20 км 5/0
[Cs]
+26.2 +0.8 19 +24 +26 комфорт 1024.4 1004.2
18 12.09 штиль 0 10 км 3/0
[Ci fib]
+18.4 +1.8 33 +18 +18 1026.4 1005.6 +29.2
21 12.09 штиль 0 10 км 3/0
[Ci fib]
+16.1 +3.2 42 +16 +16 1026.3 1005.4
00 13.09 штиль 0-2
{3}
10 км ясно +15.2 +2.4 42 +15 +15 1026.3 1005.3
03 13.09 С 1-3
{4}
10 км ясно +14.6 +1.2 40 +15 +15 1026.4 1005.3
06 13.09 С 2 20 км 8/0
[Ci fib]
+19.9 +1.4 29 +21 +23 комфорт 1025.9 1005.5 +13.5
09 13.09 С 1-3
{4}
20 км 8/0
[Ci fib]
+26.9 +2.1 20 +25 +36 комфорт 1025.3 1005.3
12 13.09 СВ 1 20 км 3/0
[Ci fib]
+28.9 -0.3 15 +26 +36 жарко 1023.8 1003.9
15 13.09 СЗ 2-3
{4}
20 км ясно +27.6 -3.3 13 +25 +26 комфорт 1022.7 1002.8
18 13.09 СЗ 1-1
{1}
10 км ясно +20.0 -0.1 26 +21 +21 комфорт 1023.4 1003.0 +14.8 +29.3
21 13.09 штиль 0-2
{2}
10 км ясно +16.9 +3.2 40 +17 +17 1023.9 1003.2 0.1
00 14.09 штиль 0 10 км ясно +15.4 +6.1 54 +15 +15 1023.6 1002.9
03 14.09 С 1-1
{2}
10 км ясно +17.1 +6.9 51 +18 +18 1023.1 1002.5
06 14.09 С 2 20 км 8/0
[Ac trans]
+19.0 +7.4 47 +20 +22 1024.3 1003.6 +15.2
09 14.09 С 3-5
{5}
20 км 9/0
[Ac trans Ci fib]
+24.2 +7.4 34 +24 +29 комфорт 1023.5 1003.2
12 14.09 СЗ 4-4
{4}
20 км 10/4 600 м
[Cb calv Ac As]
+24.1 +7.7 35 +24 +25 комфорт 1023.2 1002.9
15 14.09 С 5 20 км 9/0
[Ac trans Ci fib]
+21.7 +10.5 49 +23 +24 комфорт 1023.5 1003.0
18 14.09 С 4 10 км ясно +18.1 +2.8 36 +18 +18 1025.7 1004.9 +26.5
21 14.09 С 3-1
{3}
10 км ясно +15.3 +4.1 47 +15 +15 1027.3 1006.3
00 15.09 С 2-3
{3}
10 км ясно +12.9 +1.9 47 +12 +12 1028.0 1006.8
03 15.09 С 1 10 км ясно +10.6 +1.4 53 +11 +11 1028.3 1006.9
06 15.09 С 2-2
{2}
20 км 5/0
[Ci fib]
+14.7 +1.6 41 +15 +17 1028.4 1007.3 +10.5 292
09 15.09 СВ 1 20 км 3/0
[Ci fib]
+19.9 -1.3 24 +21 +32 комфорт 1027.2 1006.5
12 15.09 СЗ 1 20 км ясно +22.2 -1.8 20 +21 +31 комфорт 1024.3 1003.8
15 15.09 штиль 0 20 км 3/0
[Ci fib]
+21.1 -2.1 21 +20 +22 1023.3 1002.8
18 15.09 Ю 2-2
{2}
10 км ясно +16.5 +3.2 41 +17 +17 1023.5 1002.6 +5.7 +23.5
21 15.09 Ю 1-1
{2}
10 км ясно +13.9 +4.8 54 +14 +14 1022.4 1001.4
00 16.09 Ю 1 10 км ясно +13.4 +5.3 58 +14 +14 1021.0 1000.0
03 16.09 ЮЗ 2 10 км ясно +12.5 +6.3 66 +12 +12 1019.3 998.3
06 16.09 З 1-2
{2}
20 км 3/0
[Ci fib]
+16.3 +7.0 54 +17 +20 1018.9 998.3 +11.2 187
09 16.09 С 2-3
{3}
20 км ясно +22.7 +4.7 31 +23 +33 комфорт 1016.7 996.6
12 16.09 СЗ 2-4
{5}
20 км ясно +26.1 +0.7 19 +24 +33 комфорт 1014.5 994.7
15 16.09 З 1-4
{6}
20 км ясно +25.4 -0.6 18 +24 +25 комфорт 1012.9 993.1
18 16.09 штиль 0 10 км ясно +16.3 +1.2 36 +16 +16 1013.7 993.2 +27.0
21 16.09 штиль 0 10 км ясно +15.5 +0.5 36 +16 +16 1013.3 992.8
00 17.09 ЮЗ 1-2
{3}
10 км 8/0
[Ci fib]
+16.2 -0.5 32 +17 +17 1012.0 991.6
03 17.09 штиль 0-2
{4}
10 км 9/0
[Ac trans]
+14.0 +1.6 43 +14 +14 1011.3 990.7
06 17.09 С 3 20 км 9/0
[Ac trans]
+17.6 +5.5 45 +18 +19 1013.1 992.5 +13.3
09 17.09 С 2 20 км 10/0
[Ac trans]
+18.3 +8.8 54 +19 +23 1013.2 992.7
12 17.09 СЗ 1-2
{3}
20 км {дождь} 9/4
[Sc Ac As]
+20.4 +10.2 52 +23 +27 комфорт 1012.2 991.9

 

Местоположение метеостанции Штефан Водэ (Молдова): широта 46.52 долгота 29.48 высота над уровнем моря 173 м.

В архиве по умолчанию представлена погода в Штефан Водэ за последнюю неделю. Архивные данные за месяц целиком и за предыдущие месяцы, начиная с января 2011 года, Вы можете получить, выбрав интересующий диапазон дат из раскрывающегося списка и нажав кнопку "Ввод!".


*Определитесь, кто Вы:
робот инопланетянин человек

Внимание! Время в таблицах - всемирное. Для получения местного времени необходимо прибавить поправку, которая равна 2 ч.

Смотрите также архив погоды в соседних городах и на ближайших метеорологических станциях:

Погода в Тирасполе (Молдова) (43 км)
Погода в Заставе (Одесская область, Украина) (50 км)
Погода в Сарате (Одесская область, Украина) (58 км)
Погода в Раздельной (Одесская область, Украина) (59 км)
Погода в Чадыр-Лунге (Молдова) (65 км)
Погода в Кишиневе (Молдова) (67 км)
Погода в Балцате (Молдова) (68 км)
Погода в Комрате (Молдова) (70 км)
Погода в Белгород-Днестровском (Одесская область, Украина) (78 км)
Погода в Вилково (Одесская область, Украина) (78 км)

Пояснения к столбцам:

Ветер - указаны скорость ветра в м/с - средняя за 10 мин, порывы в срок и между сроками (в фигурных скобках) и направление, откуда дует ветер: С - северный, СВ - северо-восточный, В - восточный, ЮВ - юго-восточный, Ю - южный, ЮЗ - юго-западный, З - западный, СЗ - северо-западный.
Видимость - горизонтальная дальность видимости в метрах или километрах. При видимости от 1 до 10 км при отсутствии осадков обычно наблюдается дымка, при ухудшении видимости до 1 км и менее - туман. В сухую погоду видимость может ухудшаться дымом, пылью или мглою.
Явления - указаны атмосферные явления, наблюдавшиеся в срок или в последний час перед сроком; фигурными скобками обозначены явления, наблюдавшиеся между сроками (за 1-3 часа до срока); квадратными скобками обозначены град или гололедные отложения с указанием их диаметра в мм.
Облачность - указаны через наклонную черту общая и нижняя облачность в баллах и высота нижней границы облаков в метрах; квадратными скобками обозначены формы облаков: Ci - перистые, Cs - перисто-слоистые, Cc - перисто-кучевые, Ac - высококучевые, As - высокослоистые, Sc - слоисто-кучевые, Ns - слоисто-дождевые, Cu - кучевые, Cb - кучево-дождевые. Подробнее классификацию облаков см. в Атласе облаков (PDF).
T - Температура воздуха - температура, измеренная на высоте 2 м над землей.
Td - Температура точки росы - температура, при понижении до которой содержащийся в воздухе водяной пар достигнет насыщения.
f - Относительная влажность воздуха - влажноcть воздуха, измеренная на высоте 2 м над землей.
Te - Эффективная температура - температура, которую ощущает одетый по сезону человек в тени. Характеристика душности погоды. При расчете учитывается влияние влажности воздуха и скорости ветра на теплоощущения человека.
Tes - Эффективная температура на солнце - температура, которую ощущает человек, с поправкой на солнечный нагрев. Характеристика знойности погоды. Зависит от высоты солнца над горизонтом, облачности и скорости ветра. Ночью, в пасмурную погоду, а также при ветре 12 м/с и более поправка равна нулю.
P - Атмосферное давление - приведенное к уровню моря атмосферное давление.
Po - Атмосферное давление - измеренное на уровне метеостанции атмосферное давление.
Tmin - Минимальная температура - минимум температуры воздуха на высоте 2 м над землей.
Tmax - Максимальная температура - максимум температуры воздуха на высоте 2 м над землей.
R - Количество осадков - Количество выпавших осадков за период времени, мм. При наведении курсора мыши на число - период времени, за который выпало указанное количество осадков.
R24 - Количество осадков - Количество выпавших осадков за 24 часа, мм.
S - Снежный покров - Высота снежного покрова, см. При наведении курсора мыши на число - состояние снежного покрова и степень покрытия местности в баллах.